Weather History for KLRJ - April, 2013

Change the Weather History Date:

Friday, April 26, 2013

  Actual Average Record
Temperature  
Mean Temperature 58 °F -  
Max Temperature 73 °F 69 °F 91 °F (1981)
Min Temperature 44 °F 42 °F 26 °F (2006)
Degree Days  
Heating Degree Days 6    
Growing Degree Days 8 (Base 50)    
Moisture  
Dew Point 33 °F    
Average Humidity 41    
Maximum Humidity 71    
Minimum Humidity 18    
Precipitation  
Precipitation 0.00 in - - ()
Sea Level Pressure  
Sea Level Pressure 30.05 in    
Wind  
Wind Speed 11 mph (South)    
Max Wind Speed 17 mph    
Max Gust Speed 24 mph    
Visibility 10 miles    
Events      
Averages and records for this station are not official NWS values.
T = Trace of Precipitation, MM = Missing Value Source: NWS Daily Summary

Daily Weather History Graph

Daily Weather History Graph

Search for Another Location

Airport or City:

Trip Planner

Search our weather history database for the weather conditions in past years. The results will help you decide how hot, cold, wet, or windy it might be!

Date:

Astronomy

Apr. 26, 2013 Rise Set
Actual Time 6:25 AM CDT 8:19 PM CDT
Civil Twilight 5:55 AM CDT 8:50 PM CDT
Nautical Twilight 5:18 AM CDT 9:27 PM CDT
Astronomical Twilight 4:38 AM CDT 10:08 PM CDT
Moon 9:45 PM CDT (4/26) 6:52 AM CDT (4/26)
Length of Visible Light 14h 55m
Length of Day
13h 54m
Full, 99% of the Moon is Illuminated
Apr 26
Full
May 2
Last Quarter
May 9
New
May 17
First Quarter
May 24
Full

Hourly Weather History & Observations

Time (CDT) Temp. Windchill Dew Point Humidity Pressure Visibility Wind Dir Wind Speed Gust Speed Precip Events Conditions
12:15 AM 55.4 °F - 35.6 °F 47% 29.99 in 10.0 mi South 16.1 mph - N/A   Scattered Clouds
12:35 AM 53.6 °F - 35.6 °F 51% 29.98 in 10.0 mi South 16.1 mph - N/A   Scattered Clouds
12:55 AM 53.6 °F - 35.6 °F 51% 29.99 in 10.0 mi South 15.0 mph - N/A   Scattered Clouds
1:15 AM 53.6 °F - 35.6 °F 51% 29.99 in 10.0 mi South 13.8 mph - N/A   Scattered Clouds
1:35 AM 53.6 °F - 35.6 °F 51% 29.99 in 10.0 mi South 12.7 mph 20.7 mph N/A   Scattered Clouds
1:55 AM 53.6 °F - 35.6 °F 51% 29.98 in 10.0 mi South 13.8 mph - N/A   Clear
2:15 AM 51.8 °F - 35.6 °F 54% 29.97 in 10.0 mi South 15.0 mph - N/A   Clear
2:35 AM 51.8 °F - 35.6 °F 54% 29.97 in 10.0 mi South 17.3 mph 23.0 mph N/A   Clear
2:55 AM 53.6 °F - 35.6 °F 51% 29.97 in 10.0 mi South 16.1 mph 24.2 mph N/A   Clear
3:15 AM 51.8 °F - 35.6 °F 54% 29.97 in 10.0 mi SSW 12.7 mph - N/A   Clear
3:35 AM 51.8 °F - 35.6 °F 54% 29.96 in 10.0 mi SSW 15.0 mph - N/A   Clear
3:55 AM 50.0 °F - 35.6 °F 58% 29.96 in 10.0 mi South 11.5 mph - N/A   Clear
4:15 AM 50.0 °F - 35.6 °F 58% 29.97 in 10.0 mi South 12.7 mph - N/A   Clear
4:35 AM 48.2 °F - 35.6 °F 62% 29.97 in 10.0 mi South 11.5 mph - N/A   Clear
4:55 AM 48.2 °F - 35.6 °F 62% 29.97 in 10.0 mi SSW 11.5 mph - N/A   Clear
5:15 AM 48.2 °F - 35.6 °F 62% 29.97 in 10.0 mi SSW 10.4 mph - N/A   Clear
5:35 AM 46.4 °F 41.9 °F 35.6 °F 66% 29.98 in 10.0 mi SSW 9.2 mph - N/A   Clear
5:55 AM 46.4 °F 42.4 °F 35.6 °F 66% 29.98 in 10.0 mi SSW 8.1 mph - N/A   Clear
6:15 AM 46.4 °F 42.4 °F 35.6 °F 66% 29.98 in 10.0 mi SSW 8.1 mph - N/A   Clear
6:35 AM 44.6 °F 40.2 °F 35.6 °F 71% 29.99 in 10.0 mi South 8.1 mph - N/A   Clear
6:55 AM 44.6 °F 41.4 °F 35.6 °F 71% 30.00 in 10.0 mi South 5.8 mph - N/A   Clear
7:15 AM 46.4 °F 42.9 °F 35.6 °F 66% 30.00 in 10.0 mi SSW 6.9 mph - N/A   Clear
7:35 AM 46.4 °F 42.9 °F 35.6 °F 66% 30.00 in 10.0 mi SSW 6.9 mph - N/A   Clear
7:55 AM 48.2 °F - 35.6 °F 62% 30.01 in 10.0 mi SSW 10.4 mph - N/A   Clear
8:15 AM 51.8 °F - 35.6 °F 54% 30.01 in 10.0 mi SSW 12.7 mph 16.1 mph N/A   Clear
8:35 AM 51.8 °F - 37.4 °F 58% 30.02 in 10.0 mi SSW 11.5 mph - N/A   Clear
8:55 AM 53.6 °F - 37.4 °F 54% 30.02 in 10.0 mi SSW 15.0 mph - N/A   Clear
9:15 AM 55.4 °F - 37.4 °F 51% 30.03 in 10.0 mi SSW 13.8 mph - N/A   Clear
9:35 AM 57.2 °F - 37.4 °F 48% 30.03 in 10.0 mi SSW 11.5 mph - N/A   Clear
9:55 AM 57.2 °F - 37.4 °F 48% 30.03 in 10.0 mi SW 9.2 mph - N/A   Clear
10:15 AM 59.0 °F - 37.4 °F 45% 30.04 in 10.0 mi SSW 10.4 mph - N/A   Clear
10:35 AM 60.8 °F - 35.6 °F 39% 30.05 in 10.0 mi SW 6.9 mph - N/A   Clear
10:55 AM 62.6 °F - 35.6 °F 37% 30.06 in 10.0 mi West 4.6 mph - N/A   Clear
11:15 AM 62.6 °F - 33.8 °F 34% 30.07 in 10.0 mi South 4.6 mph - N/A   Clear
11:35 AM 64.4 °F - 33.8 °F 32% 30.07 in 10.0 mi SSW 3.5 mph - N/A   Clear
11:55 AM 64.4 °F - 33.8 °F 32% 30.07 in 10.0 mi NNW 4.6 mph - N/A   Clear
12:15 PM 66.2 °F - 33.8 °F 30% 30.08 in 10.0 mi WNW 3.5 mph - N/A   Clear
12:35 PM 66.2 °F - 33.8 °F 30% 30.08 in 10.0 mi SE 3.5 mph - N/A   Clear
12:55 PM 69.8 °F - 33.8 °F 27% 30.08 in 10.0 mi NNE 3.5 mph - N/A   Clear
1:15 PM 69.8 °F - 32.0 °F 25% 30.07 in 10.0 mi NNW 6.9 mph - N/A   Clear
1:35 PM 71.6 °F - 32.0 °F 23% 30.07 in 10.0 mi NE 9.2 mph - N/A   Clear
1:55 PM 71.6 °F - 30.2 °F 22% 30.07 in 10.0 mi NNE 6.9 mph 16.1 mph N/A   Clear
2:15 PM 71.6 °F - 32.0 °F 23% 30.07 in 10.0 mi NNE 10.4 mph - N/A   Clear
2:35 PM 71.6 °F - 30.2 °F 22% 30.07 in 10.0 mi NE 5.8 mph 16.1 mph N/A   Clear
2:55 PM 71.6 °F - 28.4 °F 20% 30.07 in 10.0 mi ENE 4.6 mph - N/A   Clear
3:15 PM 73.4 °F - 28.4 °F 19% 30.07 in 10.0 mi North 10.4 mph - N/A   Clear
3:35 PM 73.4 °F - 26.6 °F 18% 30.07 in 10.0 mi North 9.2 mph - N/A   Clear
3:55 PM 73.4 °F - 28.4 °F 19% 30.06 in 10.0 mi NE 6.9 mph - N/A   Clear
4:15 PM 73.4 °F - 28.4 °F 19% 30.06 in 10.0 mi North 4.6 mph - N/A   Clear
4:35 PM 73.4 °F - 26.6 °F 18% 30.06 in 10.0 mi ENE 3.5 mph - N/A   Clear
4:55 PM 73.4 °F - 28.4 °F 19% 30.06 in 10.0 mi North 9.2 mph - N/A   Clear
5:15 PM 73.4 °F - 28.4 °F 19% 30.07 in 10.0 mi North 6.9 mph - N/A   Clear
5:35 PM 73.4 °F - 28.4 °F 19% 30.07 in 10.0 mi North 3.5 mph - N/A   Clear
5:55 PM 71.6 °F - 28.4 °F 20% 30.07 in 10.0 mi NNE 9.2 mph - N/A   Clear
6:15 PM 71.6 °F - 30.2 °F 22% 30.07 in 10.0 mi NE 5.8 mph - N/A   Clear
6:35 PM 71.6 °F - 28.4 °F 20% 30.08 in 10.0 mi NNE 5.8 mph - N/A   Clear
6:55 PM 71.6 °F - 30.2 °F 22% 30.08 in 10.0 mi North 4.6 mph - N/A   Clear
7:15 PM 69.8 °F - 32.0 °F 25% 30.09 in 10.0 mi NNE 15.0 mph 18.4 mph N/A   Clear
7:35 PM 66.2 °F - 28.4 °F 24% 30.10 in 10.0 mi NNE 12.7 mph 18.4 mph N/A   Clear
7:55 PM 64.4 °F - 26.6 °F 24% 30.11 in 10.0 mi NNE 10.4 mph - N/A   Clear
8:15 PM 62.6 °F - 26.6 °F 26% 30.11 in 10.0 mi NNE 9.2 mph - N/A   Clear
8:35 PM 62.6 °F - 28.4 °F 27% 30.12 in 10.0 mi NNE 8.1 mph - N/A   Clear
8:55 PM 59.0 °F - 30.2 °F 34% 30.13 in 10.0 mi NNE 5.8 mph - N/A   Clear
9:15 PM 57.2 °F - 33.8 °F 41% 30.13 in 10.0 mi NNE 6.9 mph - N/A   Clear
9:35 PM 55.4 °F - 33.8 °F 44% 30.14 in 10.0 mi NE 6.9 mph - N/A   Clear
9:55 PM 55.4 °F - 33.8 °F 44% 30.14 in 10.0 mi NNE 5.8 mph - N/A   Clear
10:15 PM 55.4 °F - 33.8 °F 44% 30.15 in 10.0 mi NE 4.6 mph - N/A   Clear
10:35 PM 53.6 °F - 33.8 °F 47% 30.15 in 10.0 mi Calm Calm - N/A   Clear
10:55 PM 51.8 °F - 35.6 °F 54% 30.15 in 10.0 mi Calm Calm - N/A   Clear
11:15 PM 51.8 °F - 35.6 °F 54% 30.18 in 10.0 mi SSE 5.8 mph - N/A   Clear
11:35 PM 53.6 °F - 33.8 °F 47% 30.17 in 10.0 mi SE 3.5 mph - N/A   Clear
11:55 PM 48.2 °F - 33.8 °F 58% 30.18 in 10.0 mi Calm Calm - N/A   Clear